Temp
3 4 6 6 7 6 8 8 8 9 10 11 11 11 12 12 12 12 12 12 13 13 13 14 14 13 13 12 12 12 12 11 11 12 11 11 11 10 10 11 10 9 9
0 3 4 4 4 5 6 8 7 8 8 9 10 10 11 11 11 12 12 12 12 12 12 12 12 12 12 12 12 13 12 11 10 11 11 10 10 10 10 11 10 9 9
-2 -1 -1 1 3 4 5 6 7 7 7 8 9 10 11 11 11 11 11 12 12 11 12 12 11 12 11 11 13 13 11 11 11 10 11 10 10 9 10 10 9 9 9
-2 -2 -0 0 2 4 3 4 5 5 6 7 7 8 8 8 9 10 10 11 11 11 11 11 11 11 11 12 12 11 11 11 11 10 10 10 9 10 10 10 9 9 9
-1 -2 -1 0 1 3 3 2 3 4 3 5 5 5 5 6 7 8 8 9 10 10 10 10 10 10 10 10 11 11 10 10 10 10 10 9 9 10 10 9 9 8 8
-1 -3 -2 -0 0 1 -1 0 1 1 1 2 3 3 4 4 3 5 6 7 7 8 9 9 9 10 10 10 10 10 10 10 10 10 9 9 10 10 9 9 9 8 8
-5 -4 -4 -3 -3 -2 -2 -1 -0 -1 -1 0 0 1 1 3 2 4 3 4 5 5 5 6 7 8 9 9 10 10 10 10 10 9 10 9 10 10 10 9 9 8 8
-4 -4 -4 -5 -4 -3 -2 -1 -1 -1 -1 -1 -1 -1 -0 0 2 2 2 2 2 2 2 3 4 5 5 7 9 9 9 9 9 9 9 9 9 9 9 9 10 9 8
-4 -4 -5 -4 -3 -4 -3 -3 -4 -3 -2 -2 -2 -2 -1 -1 -0 1 2 2 1 1 1 1 1 2 4 4 5 6 8 9 9 9 9 9 9 9 9 8 8 8 8
-7 -6 -5 -4 -3 -4 -3 -3 -4 -4 -4 -3 -3 -3 -3 -2 -2 -1 -0 -0 0 1 1 1 1 1 2 2 3 4 5 8 8 8 8 9 9 8 8 9 9 8 8
-8 -7 -7 -7 -6 -5 -5 -4 -4 -5 -5 -4 -4 -4 -4 -4 -4 -3 -3 -3 -3 -2 -2 -1 -1 -1 0 0 1 3 4 4 4 4 4 6 7 8 8 8 8 8 8
-7 -7 -8 -8 -8 -8 -7 -7 -7 -7 -7 -6 -5 -5 -5 -5 -5 -4 -4 -5 -5 -4 -4 -4 -4 -4 -3 -2 -1 -1 -0 -0 1 1 2 2 3 3 5 6 6 7 7
-7 -7 -7 -8 -7 -8 -9 -8 -6 -7 -9 -10 -10 -10 -9 -6 -5 -5 -5 -5 -5 -5 -5 -5 -5 -5 -4 -4 -4 -3 -3 -2 -2 -2 -1 -0 -0 0 0 1 2 2 4
-7 -8 -7 -8 -8 -8 -9 -9 -11 -10 -10 -11 -9 -11 -10 -8 -7 -7 -6 -6 -6 -6 -6 -7 -6 -5 -6 -6 -5 -5 -5 -5 -5 -5 -5 -4 -4 -3 -3 -2 -1 -1 -1
-8 -8 -9 -9 -8 -8 -9 -10 -11 -11 -11 -11 -10 -10 -10 -10 -10 -10 -9 -10 -9 -9 -9 -8 -7 -7 -7 -8 -8 -8 -7 -7 -7 -7 -7 -6 -6 -5 -5 -5 -4 -3 -2
-9 -10 -10 -10 -10 -10 -10 -10 -10 -11 -12 -12 -12 -12 -12 -11 -9 -9 -9 -10 -10 -10 -11 -11 -11 -11 -11 -11 -11 -10 -10 -9 -9 -9 -8 -8 -7 -7 -7 -6 -6 -6 -7
-11 -11 -11 -11 -11 -11 -11 -11 -11 -11 -12 -12 -13 -14 -13 -13 -13 -11 -10 -11 -12 -11 -12 -13 -12 -12 -12 -12 -12 -12 -12 -11 -11 -10 -10 -9 -9 -9 -8 -8 -8 -8 -8
-11 -10 -11 -12 -12 -12 -12 -12 -12 -12 -12 -12 -13 -14 -13 -14 -15 -15 -14 -14 -14 -14 -14 -14 -14 -14 -14 -14 -14 -13 -13 -12 -12 -11 -11 -11 -10 -10 -9 -10 -9 -9 -9
-12 -12 -11 -13 -12 -13 -12 -12 -12 -12 -12 -13 -13 -14 -16 -15 -15 -15 -16 -16 -16 -15 -16 -15 -16 -16 -16 -15 -15 -14 -14 -13 -13 -12 -12 -12 -12 -12 -11 -11 -11 -11 -10
-13 -14 -14 -13 -13 -13 -13 -13 -13 -13 -13 -13 -14 -15 -17 -16 -15 -16 -16 -17 -17 -17 -17 -17 -17 -18 -18 -17 -16 -16 -15 -15 -14 -14 -13 -13 -13 -12 -12 -12 -12 -12 -12
-14 -14 -14 -14 -14 -14 -14 -14 -14 -14 -14 -14 -15 -15 -16 -17 -16 -16 -17 -18 -18 -19 -19 -18 -18 -18 -19 -19 -18 -18 -17 -17 -16 -15 -15 -14 -14 -13 -13 -13 -13 -13 -12
-15 -15 -14 -14 -14 -15 -15 -15 -15 -15 -15 -15 -16 -16 -17 -17 -17 -18 -18 -19 -19 -20 -20 -20 -20 -20 -20 -20 -20 -20 -19 -19 -18 -16 -16 -15 -14 -14 -14 -14 -14 -14 -13
-15 -15 -15 -15 -15 -16 -16 -16 -16 -16 -16 -16 -16 -17 -17 -17 -18 -18 -19 -19 -20 -20 -21 -21 -21 -21 -20 -20 -20 -21 -20 -17 -18 -19 -17 -16 -16 -15 -15 -15 -15 -15 -15
-15 -16 -16 -16 -16 -16 -16 -17 -16 -17 -17 -17 -17 -18 -18 -18 -18 -19 -19 -20 -20 -21 -21 -21 -22 -22 -21 -19 -18 -18 -18 -17 -17 -17 -18 -18 -17 -17 -16 -16 -16 -16 -16
-16 -16 -16 -16 -17 -17 -17 -17 -17 -17 -17 -18 -18 -18 -18 -19 -19 -19 -20 -20 -20 -21 -21 -21 -22 -23 -21 -22 -19 -19 -18 -18 -17 -17 -17 -19 -19 -18 -18 -17 -17 -17 -17
-16 -16 -17 -17 -17 -17 -17 -18 -18 -18 -18 -18 -19 -19 -19 -19 -20 -20 -20 -20 -21 -22 -21 -21 -22 -22 -23 -23 -20 -20 -19 -18 -18 -18 -18 -20 -19 -19 -18 -18 -18 -17 -18
Height
1404 1404 1407 1414 1412 1425 1418 1423 1425 1419 1416 1420 1425 1427 1425 1432 1433 1428 1433 1437 1437 1439 1443 1444 1446 1449 1452 1453 1454 1454 1455 1457 1455 1455 1459 1459 1459 1458 1459 1459 1460 1461 1463
1411 1408 1412 1416 1420 1421 1415 1412 1411 1414 1418 1420 1421 1419 1419 1425 1420 1419 1427 1429 1431 1433 1435 1437 1437 1438 1442 1444 1445 1445 1444 1446 1447 1447 1449 1450 1452 1451 1452 1452 1452 1453 1453
1424 1424 1423 1419 1416 1410 1410 1414 1418 1422 1421 1417 1410 1411 1415 1416 1413 1417 1421 1423 1424 1427 1428 1429 1429 1432 1433 1434 1435 1434 1435 1437 1437 1439 1440 1441 1441 1443 1444 1444 1445 1446 1448
1424 1422 1420 1421 1410 1411 1420 1417 1418 1424 1418 1412 1412 1414 1415 1414 1414 1415 1417 1417 1418 1420 1422 1422 1423 1424 1423 1424 1424 1425 1427 1427 1428 1429 1431 1432 1431 1433 1436 1437 1438 1438 1441
1429 1426 1423 1424 1424 1422 1427 1431 1428 1421 1424 1421 1423 1419 1418 1415 1414 1412 1412 1412 1411 1411 1413 1415 1417 1416 1417 1417 1417 1418 1419 1419 1419 1420 1421 1423 1422 1424 1426 1428 1431 1434 1435
1433 1437 1436 1432 1435 1436 1442 1436 1434 1435 1432 1429 1424 1423 1422 1417 1419 1414 1407 1408 1406 1405 1405 1406 1407 1406 1403 1408 1408 1409 1410 1410 1408 1410 1410 1411 1412 1416 1420 1421 1424 1425 1428
1451 1446 1444 1445 1446 1447 1446 1441 1439 1439 1436 1432 1430 1428 1427 1421 1420 1413 1413 1407 1403 1403 1401 1400 1399 1397 1396 1395 1397 1398 1399 1400 1399 1398 1399 1401 1404 1409 1412 1413 1415 1417 1418
1459 1457 1455 1457 1455 1453 1450 1445 1445 1443 1440 1439 1436 1434 1430 1427 1423 1420 1415 1410 1407 1403 1403 1399 1393 1394 1389 1387 1386 1386 1388 1390 1389 1393 1393 1395 1397 1402 1403 1405 1408 1411 1412
1469 1468 1466 1462 1459 1457 1455 1452 1451 1449 1447 1443 1441 1437 1432 1430 1427 1422 1416 1413 1410 1407 1405 1401 1398 1392 1388 1385 1380 1378 1376 1378 1379 1382 1386 1386 1389 1393 1396 1397 1398 1400 1402
1479 1476 1473 1470 1467 1465 1462 1458 1457 1457 1452 1447 1445 1441 1438 1433 1428 1423 1420 1418 1415 1411 1406 1401 1395 1393 1388 1385 1379 1373 1371 1368 1371 1373 1375 1376 1379 1382 1386 1386 1386 1389 1391
1488 1483 1480 1477 1474 1470 1467 1465 1463 1460 1457 1453 1449 1446 1441 1436 1433 1430 1428 1423 1419 1413 1407 1402 1398 1393 1387 1384 1377 1371 1368 1369 1367 1366 1364 1365 1366 1369 1372 1375 1376 1377 1381
1491 1489 1485 1483 1479 1474 1471 1468 1466 1462 1457 1454 1450 1446 1443 1440 1437 1432 1428 1424 1419 1414 1410 1406 1401 1395 1389 1385 1380 1376 1372 1369 1366 1362 1359 1360 1360 1359 1361 1364 1366 1368 1370
1496 1491 1489 1485 1483 1479 1473 1468 1464 1460 1456 1451 1448 1444 1441 1438 1436 1431 1427 1424 1420 1417 1413 1409 1405 1400 1395 1389 1384 1380 1375 1370 1367 1363 1360 1356 1357 1358 1357 1357 1359 1361 1360
1497 1493 1490 1488 1485 1482 1477 1473 1467 1463 1460 1455 1450 1447 1444 1440 1435 1431 1427 1425 1422 1418 1415 1410 1406 1402 1398 1394 1388 1383 1378 1374 1369 1366 1365 1362 1357 1356 1359 1360 1358 1358 1360
1497 1495 1491 1490 1487 1483 1479 1474 1472 1466 1463 1459 1455 1452 1448 1443 1439 1437 1433 1429 1425 1422 1417 1412 1407 1402 1398 1395 1391 1387 1383 1378 1376 1373 1370 1366 1363 1361 1361 1360 1358 1359 1358
1498 1495 1493 1490 1487 1483 1481 1479 1475 1469 1467 1463 1459 1454 1452 1448 1443 1438 1435 1431 1427 1423 1420 1415 1410 1406 1403 1399 1396 1393 1389 1385 1381 1378 1375 1372 1370 1367 1365 1364 1364 1363 1365
1497 1495 1493 1491 1487 1485 1482 1480 1478 1474 1471 1469 1462 1457 1453 1449 1443 1438 1434 1431 1428 1423 1420 1416 1413 1410 1407 1404 1401 1398 1394 1390 1387 1383 1380 1377 1374 1372 1370 1369 1369 1369 1369
1497 1495 1492 1491 1489 1486 1483 1481 1480 1478 1474 1469 1466 1459 1453 1447 1445 1440 1435 1431 1429 1426 1424 1420 1416 1413 1409 1406 1403 1400 1398 1393 1390 1388 1385 1382 1379 1377 1375 1374 1374 1374 1373
1498 1495 1493 1492 1490 1488 1486 1484 1482 1478 1474 1470 1466 1461 1453 1449 1447 1443 1438 1434 1431 1428 1425 1422 1419 1415 1411 1407 1406 1402 1400 1397 1394 1392 1389 1387 1385 1383 1381 1379 1379 1378 1378
1499 1496 1493 1492 1491 1488 1486 1483 1480 1477 1473 1470 1466 1460 1454 1450 1448 1444 1440 1436 1432 1430 1426 1423 1420 1416 1412 1409 1407 1403 1401 1399 1396 1394 1392 1390 1389 1387 1386 1385 1384 1383 1383
1498 1497 1493 1492 1490 1487 1485 1481 1479 1476 1472 1469 1465 1460 1455 1452 1449 1446 1442 1438 1434 1430 1427 1424 1421 1417 1413 1409 1406 1404 1403 1400 1397 1395 1395 1394 1392 1391 1390 1390 1389 1389 1389
1497 1495 1493 1491 1488 1486 1482 1480 1477 1474 1471 1468 1464 1460 1456 1453 1450 1446 1443 1439 1435 1432 1428 1424 1421 1417 1412 1410 1407 1404 1402 1400 1397 1395 1395 1396 1395 1393 1393 1391 1391 1391 1391
1496 1494 1492 1490 1487 1483 1481 1478 1475 1472 1469 1466 1462 1459 1455 1452 1449 1445 1442 1438 1435 1431 1427 1424 1421 1415 1411 1408 1406 1403 1400 1398 1397 1396 1396 1396 1397 1395 1394 1394 1392 1391 1390
1495 1492 1490 1488 1485 1482 1479 1476 1473 1470 1467 1463 1460 1457 1453 1450 1447 1444 1441 1437 1434 1430 1427 1423 1419 1416 1411 1408 1405 1403 1401 1399 1398 1397 1396 1398 1397 1396 1396 1396 1394 1393 1393
1492 1490 1488 1485 1482 1479 1476 1473 1470 1467 1464 1460 1457 1454 1451 1448 1445 1442 1438 1436 1432 1429 1426 1423 1419 1415 1411 1408 1405 1403 1402 1400 1399 1398 1397 1397 1397 1397 1395 1396 1395 1395 1394
1489 1487 1484 1482 1479 1476 1473 1470 1467 1464 1461 1457 1454 1451 1448 1445 1442 1439 1436 1433 1430 1427 1424 1422 1419 1414 1411 1410 1405 1403 1401 1400 1399 1398 1397 1397 1396 1396 1396 1396 1395 1396 1395
Wind_Speed
27 25 22 18 18 10 8 6 3 2 2 6 8 13 15 18 19 20 24 33 40 42 39 44 42 40 37 41 42 40 38 34 34 38 26 28 29 28 26 24 23 26 35
37 32 26 24 23 21 22 19 18 14 9 6 6 8 13 16 15 19 24 29 35 39 44 45 45 39 39 45 43 45 45 46 38 42 38 33 34 35 29 24 23 25 27
33 33 34 33 30 29 27 23 18 16 13 9 10 11 14 16 17 21 29 28 31 37 39 42 41 38 40 44 46 40 46 44 41 39 36 30 34 30 29 26 27 27 27
37 38 38 37 38 35 30 27 25 21 20 18 14 11 9 10 15 20 25 27 30 34 35 39 36 39 40 41 39 41 44 45 43 40 32 34 33 33 25 26 26 32 35
38 40 39 36 34 32 30 28 25 25 23 21 18 19 19 17 15 15 15 20 24 28 29 25 34 33 36 40 41 39 42 46 43 35 32 34 39 36 30 26 29 32 36
37 35 33 33 32 30 26 29 29 29 28 27 27 26 26 22 20 15 11 11 12 18 23 27 25 28 34 36 35 44 45 46 45 39 34 37 40 37 32 28 31 38 35
33 34 33 30 28 27 26 28 29 29 29 31 30 28 28 27 25 24 22 18 15 14 15 17 22 24 31 35 39 40 44 50 47 38 37 39 41 39 31 29 33 37 42
34 33 31 28 27 27 28 29 28 27 29 29 30 29 29 27 26 25 23 22 21 21 19 19 17 20 20 28 36 41 43 49 42 37 35 33 31 34 33 31 31 34 42
32 30 29 29 28 28 28 27 27 27 27 28 29 30 30 29 27 25 25 25 24 22 21 21 21 21 19 21 22 30 30 38 45 40 38 36 33 35 34 32 34 35 41
27 27 27 27 27 26 26 26 23 23 24 25 25 28 28 30 30 29 28 25 23 23 23 22 22 23 24 23 21 21 19 22 29 38 41 40 40 41 40 39 40 37 42
19 24 26 25 25 25 24 24 23 22 23 24 25 25 27 29 29 29 28 27 26 26 26 27 27 27 25 25 22 20 19 21 27 26 30 32 36 39 40 41 39 39 46
19 19 22 24 22 25 27 25 25 25 25 26 26 27 27 28 28 27 27 27 26 26 26 26 26 25 24 23 20 16 13 12 14 14 16 20 20 23 28 31 36 40 43
18 19 20 21 22 23 25 27 27 29 28 28 29 30 31 30 29 29 29 27 25 24 22 22 21 21 20 19 19 16 14 11 9 7 5 6 9 12 13 16 21 28 31
17 19 18 19 20 20 19 21 24 28 27 26 29 29 29 31 33 33 31 29 28 26 23 21 19 17 17 17 18 18 17 16 15 13 10 7 4 0 4 6 5 9 12
16 16 18 17 18 18 20 24 23 26 29 28 26 25 27 29 30 28 27 27 26 23 22 20 19 19 19 19 19 19 17 16 15 12 9 8 8 5 4 3 2 3 6
15 16 17 17 17 18 18 17 22 27 28 30 30 26 25 24 25 24 23 22 24 20 19 20 20 20 21 21 19 19 19 18 16 14 12 10 9 9 9 9 10 15 17
15 16 15 16 17 17 17 18 19 18 19 22 28 28 24 24 25 26 21 17 20 20 18 18 18 18 19 18 18 18 18 17 16 15 13 11 11 10 10 12 13 14 17
16 17 16 16 16 17 17 17 17 18 19 20 21 28 25 23 25 25 24 17 18 18 17 18 18 17 16 16 16 17 17 17 16 15 15 14 12 9 9 11 11 12 13
14 15 16 13 14 15 14 15 15 16 17 18 20 21 25 21 21 22 21 19 17 18 17 16 16 16 16 15 15 13 14 13 14 15 13 14 14 13 12 12 11 11 9
11 15 15 12 13 14 14 14 16 16 17 18 19 20 24 22 20 21 20 19 17 16 16 15 16 16 14 13 14 14 13 12 12 13 13 10 11 11 10 9 11 10 8
11 12 14 12 13 13 14 15 15 16 17 17 17 21 25 19 17 17 18 18 17 16 15 15 14 15 15 14 13 11 12 11 7 11 11 12 11 10 9 8 8 7 7
11 12 12 13 13 14 14 14 15 16 16 17 17 17 20 16 16 15 15 16 14 15 14 13 13 11 13 13 13 12 10 9 10 5 9 10 9 9 9 7 7 7 7
11 12 12 12 13 15 14 14 15 15 16 17 17 17 16 16 16 15 15 15 14 13 14 12 12 13 13 11 10 11 10 9 7 7 7 9 9 6 6 6 6 3 4
11 12 12 13 14 14 14 15 15 16 16 17 16 16 16 15 15 15 15 15 14 13 13 14 13 13 13 12 11 10 10 9 8 6 5 6 4 3 5 6 6 6 6
11 12 13 14 14 15 15 15 15 16 16 17 16 16 16 16 15 15 15 14 15 13 13 15 15 12 12 13 11 10 9 8 7 5 4 5 6 7 4 2 4 4 3
12 13 15 15 15 16 16 17 17 17 17 17 17 16 17 16 15 15 15 14 15 15 13 14 13 18 12 11 14 11 9 8 7 5 2 5 3 3 2 4 3 2 2
Wind_Direction
67 75 80 79 77 73 87 99 80 34 314 276 256 235 239 265 274 270 261 255 246 248 251 253 248 252 248 244 244 247 247 238 238 258 258 266 268 259 265 259 249 242 236
59 66 69 70 71 69 58 39 31 27 8 337 281 254 242 249 256 251 263 267 258 257 255 258 258 257 251 252 260 256 247 244 247 257 265 265 249 262 262 263 260 247 253
59 58 62 60 60 57 54 52 44 36 23 5 333 303 280 269 262 255 252 248 249 255 255 256 261 256 256 256 256 257 246 247 249 253 258 257 256 256 259 259 256 250 249
59 58 58 53 52 52 50 46 45 36 37 24 13 350 321 295 269 253 254 252 248 249 256 262 263 261 261 259 259 256 250 248 247 245 248 246 246 255 256 255 251 243 239
54 54 55 55 55 56 51 51 45 45 39 40 31 27 14 357 342 314 286 265 258 253 251 259 267 272 263 259 256 254 246 245 244 244 241 236 243 248 246 244 244 241 222
52 47 52 54 52 56 48 50 53 50 50 48 43 35 26 22 15 359 357 326 296 277 270 257 259 255 252 260 271 256 255 251 240 232 238 231 243 246 243 240 239 225 221
44 48 47 46 46 44 45 49 46 43 41 42 43 43 38 35 21 10 8 4 354 341 327 295 270 261 257 259 263 261 256 248 241 242 238 237 243 246 247 240 241 237 227
43 45 45 41 43 43 46 47 43 40 39 37 37 36 35 33 30 25 20 15 9 5 357 345 329 306 291 271 263 256 258 249 239 236 240 250 251 254 254 250 242 238 232
41 42 42 43 43 42 43 44 41 37 37 35 33 30 29 26 25 24 24 23 18 11 3 358 350 343 331 330 306 270 243 248 240 242 245 244 243 241 243 233 234 229 229
29 34 36 39 39 39 39 40 40 35 33 33 31 30 28 26 23 20 18 17 15 14 11 7 1 353 343 335 331 335 292 250 247 248 242 240 241 238 245 231 231 234 232
31 23 31 31 31 35 35 36 34 33 31 31 30 27 25 24 24 23 19 15 12 8 7 8 6 4 359 351 346 329 327 305 276 263 252 241 238 237 240 241 232 232 236
23 28 24 26 27 19 24 27 26 28 26 26 26 26 22 18 18 20 20 19 13 7 6 5 3 1 360 358 357 354 341 323 310 288 274 265 251 247 233 231 232 226 229
21 26 24 25 19 18 18 16 20 20 20 17 15 12 10 11 10 10 10 10 11 8 2 358 358 358 3 7 11 8 8 9 357 330 311 272 268 274 269 252 237 233 232
22 20 22 18 22 17 18 18 14 17 15 13 11 8 3 1 1 2 2 360 359 359 359 354 352 354 5 10 16 21 26 29 33 37 30 20 12 177 227 244 239 222 218
20 18 18 15 15 17 11 9 8 3 6 6 5 2 358 356 356 353 353 354 356 356 354 352 356 1 5 10 15 19 25 30 33 33 34 45 56 61 67 81 133 201 163
14 15 8 11 10 11 9 8 358 355 357 354 354 357 356 349 345 343 343 349 348 355 357 2 7 11 11 9 10 13 16 22 27 30 38 47 61 77 90 101 110 109 108
15 9 9 7 6 5 3 360 354 353 353 347 342 345 353 350 348 345 346 356 346 352 1 0 4 8 8 4 7 7 10 16 18 24 34 44 58 69 85 99 108 119 121
12 3 8 1 358 357 356 352 346 342 342 342 342 334 341 354 353 353 352 357 360 2 6 359 360 0 2 3 360 5 6 12 22 21 24 31 39 55 75 87 98 108 118
3 353 1 357 348 351 345 340 337 338 337 335 336 332 342 7 352 350 356 3 359 355 357 355 353 355 357 359 359 8 7 12 20 15 22 28 29 33 48 64 72 78 87
353 343 351 352 344 340 337 335 334 334 334 333 335 329 337 351 351 350 352 352 355 353 351 352 349 350 353 358 358 0 2 6 21 20 19 24 37 36 34 41 52 44 55
345 339 344 343 338 335 332 333 331 328 328 329 329 325 331 348 341 342 342 343 347 348 346 349 350 347 350 356 358 3 0 360 7 47 24 23 24 32 38 39 47 63 76
338 335 337 335 331 327 327 332 325 323 324 322 322 322 324 333 331 333 333 334 341 339 341 342 343 346 346 353 355 357 359 352 360 33 62 28 25 24 27 38 56 61 70
330 331 332 328 326 324 330 322 322 320 319 319 319 320 323 323 324 325 327 328 331 334 333 339 343 343 340 348 346 349 345 346 356 5 68 43 6 42 25 26 36 43 90
322 323 323 321 319 321 320 318 320 318 318 317 317 316 316 317 318 319 320 320 325 328 328 332 331 334 339 341 340 342 343 341 346 4 46 21 357 60 39 27 26 51 50
311 315 315 315 315 313 314 315 313 313 314 315 314 312 311 313 314 315 314 315 317 321 324 328 321 328 331 335 335 336 333 330 330 333 343 50 358 9 38 4 89 360 100
304 305 306 308 308 307 306 306 308 308 309 310 310 309 308 308 311 308 309 313 303 312 324 315 317 312 324 324 323 327 324 326 326 318 326 13 330 284 110 0 85 38 39